| time (UTC) | temp C | wind direction | speed KPH | gust KPH | rain 1hr cm | rain 24hr cm | rain mn cm | humidity % | barometer mb |
| 20260508080838 | 17 | 205 | 0.0 | 6.4 | 0.00 | 10.11 | 0.00 | 80 | 1012.7 |
| 20260508080334 | 17 | 205 | 1.6 | 6.4 | 0.00 | 10.11 | 0.00 | 81 | 1012.8 |
| 20260508075845 | 17 | 205 | 1.6 | 4.8 | 0.00 | 10.11 | 0.00 | 81 | 1012.8 |
| 20260508075335 | 17 | 205 | 1.6 | 4.8 | 0.00 | 10.11 | 0.00 | 82 | 1012.8 |
| 20260508074833 | 17 | 205 | 0.0 | 6.4 | 0.00 | 10.11 | 0.00 | 82 | 1012.7 |
| 20260508074326 | 17 | 205 | 3.2 | 6.4 | 0.00 | 10.11 | 0.00 | 83 | 1012.7 |
| 20260508073837 | 16 | 205 | 0.0 | 3.2 | 0.00 | 10.11 | 0.00 | 83 | 1012.6 |
| 20260508073327 | 16 | 205 | 0.0 | 3.2 | 0.00 | 10.11 | 0.00 | 83 | 1012.5 |
| 20260508072838 | 16 | 205 | 0.0 | 3.2 | 0.00 | 10.11 | 0.00 | 83 | 1012.6 |
| 20260508072328 | 16 | 205 | 0.0 | 4.8 | 0.00 | 10.11 | 0.00 | 83 | 1012.6 |
| 20260508071839 | 16 | 205 | 0.0 | 6.4 | 0.00 | 10.11 | 0.00 | 83 | 1012.7 |
| 20260508071333 | 16 | 205 | 0.0 | 6.4 | 0.00 | 10.11 | 0.00 | 84 | 1012.7 |
| 20260508070831 | 15 | 205 | 1.6 | 4.8 | 0.00 | 10.11 | 0.00 | 83 | 1012.5 |
| 20260508070342 | 15 | 205 | 0.0 | 4.8 | 0.00 | 10.11 | 0.00 | 84 | 1012.4 |
| 20260508065832 | 15 | 205 | 0.0 | 4.8 | 0.00 | 10.11 | 0.00 | 84 | 1012.4 |
| 20260508065325 | 15 | 205 | 0.0 | 3.2 | 0.00 | 10.11 | 0.00 | 84 | 1012.5 |
| 20260508064838 | 15 | 205 | 1.6 | 4.8 | 0.00 | 10.11 | 0.00 | 84 | 1012.4 |
| 20260508064332 | 15 | 205 | 0.0 | 1.6 | 0.00 | 10.11 | 0.00 | 84 | 1012.4 |
| 20260508063822 | 15 | 205 | 0.0 | 4.8 | 0.00 | 10.11 | 0.00 | 84 | 1012.4 |
| 20260508063320 | 15 | 205 | 1.6 | 8.0 | 0.00 | 10.11 | 0.00 | 84 | 1012.5 |
| 20260508062833 | 15 | 205 | 3.2 | 8.0 | 0.00 | 10.11 | 0.00 | 84 | 1012.5 |
| 20260508062326 | 15 | 205 | 1.6 | 4.8 | 0.00 | 10.11 | 0.00 | 84 | 1012.4 |
| 20260508061840 | 15 | 205 | 1.6 | 4.8 | 0.00 | 10.11 | 0.00 | 84 | 1012.3 |
| 20260508061332 | 14 | 205 | 1.6 | 6.4 | 0.00 | 10.11 | 0.00 | 84 | 1012.1 |
| 20260508060826 | 14 | 205 | 3.2 | 6.4 | 0.00 | 10.11 | 0.00 | 84 | 1012.1 |
| 20260508060339 | 14 | 205 | 0.0 | 6.4 | 0.00 | 10.11 | 0.00 | 84 | 1011.9 |
| 20260508055829 | 14 | 205 | 3.2 | 8.0 | 0.00 | 10.11 | 0.00 | 84 | 1011.9 |
| 20260508055327 | 14 | 205 | 1.6 | 8.0 | 0.00 | 10.11 | 0.00 | 84 | 1012.1 |
| 20260508054840 | 13 | 205 | 3.2 | 9.7 | 0.00 | 10.11 | 0.00 | 84 | 1012.1 |
| 20260508054331 | 13 | 205 | 4.8 | 9.7 | 0.00 | 10.11 | 0.00 | 84 | 1012.2 |
| 20260508053841 | 13 | 203 | 4.8 | 6.4 | 0.00 | 10.11 | 0.00 | 84 | 1012.1 |
| 20260508053332 | 13 | 203 | 1.6 | 6.4 | 0.00 | 10.11 | 0.00 | 84 | 1012.0 |
| 20260508052841 | 13 | 203 | 0.0 | 4.8 | 0.00 | 10.11 | 0.00 | 84 | 1011.9 |
| 20260508052332 | 13 | 203 | 1.6 | 6.4 | 0.00 | 10.11 | 0.00 | 84 | 1011.7 |
| 20260508051825 | 13 | 203 | 3.2 | 6.4 | 0.00 | 10.11 | 0.00 | 84 | 1011.6 |
| 20260508051336 | 13 | 203 | 3.2 | 8.0 | 0.00 | 10.11 | 0.00 | 84 | 1011.6 |
| 20260508050833 | 12 | 203 | 3.2 | 8.0 | 0.00 | 10.11 | 0.00 | 84 | 1011.6 |
| 20260508050326 | 12 | 203 | 0.0 | 0.0 | 0.00 | 10.11 | 0.00 | 84 | 1011.4 |
| 20260508045839 | 12 | 203 | 0.0 | 1.6 | 0.00 | 10.11 | 0.00 | 84 | 1011.3 |
| 20260508045329 | 12 | 203 | 0.0 | 4.8 | 0.00 | 10.11 | 0.00 | 84 | 1011.4 |
| 20260508044826 | 12 | 203 | 1.6 | 4.8 | 0.00 | 10.11 | 0.00 | 84 | 1011.3 |
| 20260508044336 | 12 | 203 | 1.6 | 6.4 | 0.00 | 10.11 | 0.00 | 83 | 1011.2 |
| 20260508043827 | 12 | 203 | 3.2 | 6.4 | 0.00 | 10.11 | 0.00 | 84 | 1011.3 |
| 20260508043321 | 12 | 203 | 1.6 | 4.8 | 0.00 | 10.11 | 0.00 | 84 | 1011.4 |
| 20260508042832 | 12 | 203 | 1.6 | 6.4 | 0.00 | 10.11 | 0.00 | 84 | 1011.3 |
| 20260508042326 | 11 | 203 | 3.2 | 6.4 | 0.00 | 10.11 | 0.00 | 84 | 1011.2 |
| 20260508041822 | 11 | 203 | 0.0 | 0.0 | 0.00 | 10.11 | 0.00 | 84 | 1011.2 |
| 20260508041333 | 11 | 203 | 0.0 | 0.0 | 0.00 | 10.11 | 0.00 | 84 | 1011.1 |
| 20260508040823 | 11 | 203 | 0.0 | 0.0 | 0.00 | 10.11 | 0.00 | 84 | 1011.2 |
| 20260508040328 | 11 | 203 | 0.0 | 0.0 | 0.00 | 10.11 | 0.00 | 84 | 1011.2 |
| 20260508035838 | 11 | 203 | 0.0 | 0.0 | 0.00 | 10.11 | 0.00 | 84 | 1011.3 |
| 20260508035329 | 11 | 203 | 0.0 | 1.6 | 0.00 | 10.11 | 0.00 | 84 | 1011.4 |
| 20260508034826 | 11 | 203 | 0.0 | 1.6 | 0.00 | 10.11 | 0.00 | 84 | 1011.5 |
| 20260508034336 | 11 | 203 | 0.0 | 0.0 | 0.00 | 10.11 | 0.00 | 84 | 1011.4 |
| 20260508033827 | 11 | 203 | 0.0 | 0.0 | 0.00 | 10.11 | 0.00 | 84 | 1011.3 |
| 20260508033320 | 11 | 203 | 0.0 | 0.0 | 0.00 | 10.11 | 0.00 | 84 | 1011.2 |
| 20260508032829 | 11 | 203 | 0.0 | 0.0 | 0.00 | 10.11 | 0.00 | 85 | 1011.3 |
| 20260508032326 | 11 | 203 | 0.0 | 1.6 | 0.00 | 10.11 | 0.00 | 84 | 1011.3 |
| 20260508031820 | 11 | 203 | 0.0 | 1.6 | 0.00 | 10.11 | 0.00 | 84 | 1011.3 |
| 20260508031330 | 11 | 203 | 0.0 | 1.6 | 0.00 | 10.11 | 0.00 | 85 | 1011.4 |
| 20260508030825 | 11 | 203 | 0.0 | 3.2 | 0.00 | 10.11 | 0.00 | 85 | 1011.5 |
| 20260508030338 | 11 | 203 | 0.0 | 3.2 | 0.00 | 10.11 | 0.00 | 84 | 1011.4 |
| 20260508025824 | 11 | 203 | 0.0 | 3.2 | 0.00 | 10.11 | 0.00 | 85 | 1011.3 |
| 20260508025337 | 11 | 203 | 0.0 | 3.2 | 0.00 | 10.11 | 0.00 | 85 | 1011.4 |
| 20260508024828 | 11 | 203 | 0.0 | 1.6 | 0.00 | 10.11 | 0.00 | 84 | 1011.4 |
| 20260508024318 | 11 | 203 | 0.0 | 4.8 | 0.00 | 10.11 | 0.00 | 85 | 1011.6 |
| 20260508023832 | 11 | 203 | 1.6 | 4.8 | 0.00 | 10.11 | 0.00 | 84 | 1011.6 |
| 20260508023326 | 11 | 203 | 1.6 | 4.8 | 0.00 | 10.11 | 0.00 | 85 | 1011.5 |
| 20260508022823 | 11 | 203 | 1.6 | 4.8 | 0.00 | 10.11 | 0.00 | 85 | 1011.5 |
| 20260508022334 | 11 | 203 | 1.6 | 4.8 | 0.00 | 10.11 | 0.00 | 85 | 1011.6 |
| 20260508021824 | 11 | 203 | 1.6 | 4.8 | 0.00 | 10.11 | 0.00 | 85 | 1011.6 |
| 20260508021335 | 11 | 203 | 1.6 | 4.8 | 0.00 | 10.11 | 0.00 | 85 | 1011.7 |
| 20260508020336 | 11 | 203 | 0.0 | 4.8 | 0.00 | 10.11 | 0.00 | 85 | 1011.7 |
| 20260508015830 | 11 | 203 | 0.0 | 4.8 | 0.00 | 10.11 | 0.00 | 85 | 1011.6 |
| 20260508015320 | 11 | 203 | 0.0 | 4.8 | 0.00 | 10.11 | 0.00 | 85 | 1011.7 |
| 20260508014838 | 11 | 203 | 1.6 | 4.8 | 0.00 | 10.11 | 0.00 | 84 | 1011.7 |
| 20260508014328 | 11 | 203 | 0.0 | 4.8 | 0.00 | 10.11 | 0.00 | 84 | 1011.8 |
| 20260508013838 | 11 | 203 | 3.2 | 4.8 | 0.00 | 10.11 | 0.00 | 84 | 1011.7 |
| 20260508013329 | 11 | 203 | 0.0 | 0.0 | 0.00 | 10.11 | 0.00 | 84 | 1011.8 |
| 20260508012822 | 11 | 203 | 0.0 | 0.0 | 0.00 | 10.11 | 0.00 | 84 | 1011.9 |
| 20260508012332 | 11 | 203 | 0.0 | 0.0 | 0.00 | 10.11 | 0.00 | 84 | 1011.9 |
| 20260508011826 | 11 | 203 | 0.0 | 0.0 | 0.00 | 10.11 | 0.00 | 85 | 1012.0 |
| 20260508011337 | 11 | 203 | 0.0 | 0.0 | 0.00 | 10.11 | 0.00 | 85 | 1012.1 |
| 20260508010831 | 11 | 203 | 0.0 | 0.0 | 0.00 | 10.11 | 0.00 | 85 | 1012.1 |
| 20260508010322 | 11 | 203 | 0.0 | 0.0 | 0.00 | 10.11 | 0.00 | 85 | 1012.1 |
| 20260508005832 | 12 | 203 | 0.0 | 0.0 | 0.00 | 10.11 | 0.00 | 85 | 1012.1 |
| 20260508005326 | 12 | 203 | 0.0 | 0.0 | 0.00 | 10.11 | 0.00 | 85 | 1012.1 |
| 20260508004836 | 12 | 203 | 0.0 | 0.0 | 0.00 | 10.11 | 0.00 | 84 | 1012.1 |
| 20260508004327 | 12 | 203 | 0.0 | 0.0 | 0.00 | 10.11 | 0.00 | 84 | 1012.2 |
| 20260508003837 | 12 | 203 | 0.0 | 0.0 | 0.00 | 10.11 | 0.00 | 85 | 1012.2 |
| 20260508003328 | 12 | 203 | 0.0 | 0.0 | 0.00 | 10.11 | 0.00 | 84 | 1012.2 |
| 20260508002822 | 12 | 203 | 0.0 | 0.0 | 0.00 | 10.11 | 0.00 | 84 | 1012.2 |
| 20260508002333 | 12 | 203 | 0.0 | 0.0 | 0.00 | 10.11 | 0.00 | 85 | 1012.1 |
| 20260508001824 | 12 | 203 | 0.0 | 0.0 | 0.00 | 10.11 | 0.00 | 85 | 1012.2 |
| 20260508001316 | 12 | 203 | 0.0 | 0.0 | 0.00 | 10.11 | 0.00 | 84 | 1012.2 |
| 20260508000826 | 12 | 203 | 0.0 | 0.0 | 0.00 | 10.11 | 0.00 | 84 | 1012.2 |
| 20260508000321 | 12 | 203 | 0.0 | 4.8 | 0.00 | 10.11 | 0.00 | 84 | 1012.2 |
| 20260507235832 | 12 | 203 | 1.6 | 4.8 | 0.00 | 10.11 | 0.00 | 85 | 1012.2 |
| 20260507235326 | 13 | 203 | 0.0 | 4.8 | 0.00 | 10.11 | 0.00 | 85 | 1012.3 |
| 20260507234823 | 13 | 203 | 1.6 | 6.4 | 0.00 | 10.11 | 0.00 | 85 | 1012.4 |
| 20260507234333 | 13 | 203 | 3.2 | 6.4 | 0.00 | 10.11 | 0.00 | 85 | 1012.4 |
| 20260507233827 | 13 | 203 | 3.2 | 6.4 | 0.00 | 10.11 | 0.00 | 84 | 1012.4 |
| 20260507233317 | 13 | 203 | 1.6 | 9.7 | 0.00 | 10.11 | 0.00 | 84 | 1012.4 |
| 20260507232829 | 13 | 203 | 3.2 | 9.7 | 0.00 | 10.11 | 0.00 | 84 | 1012.4 |
| 20260507232318 | 13 | 200 | 3.2 | 6.4 | 0.00 | 10.11 | 0.00 | 84 | 1012.4 |
| 20260507231829 | 13 | 200 | 0.0 | 8.0 | 0.00 | 10.11 | 0.00 | 84 | 1012.5 |
| 20260507231322 | 13 | 200 | 1.6 | 6.4 | 0.00 | 10.11 | 0.00 | 84 | 1012.5 |
| 20260507230832 | 13 | 200 | 0.0 | 6.4 | 0.00 | 10.11 | 0.00 | 84 | 1012.5 |
| 20260507230326 | 13 | 200 | 1.6 | 4.8 | 0.00 | 10.11 | 0.00 | 84 | 1012.5 |
| 20260507225838 | 13 | 200 | 0.0 | 1.6 | 0.00 | 10.11 | 0.00 | 84 | 1012.6 |
| 20260507225329 | 13 | 200 | 0.0 | 4.8 | 0.00 | 10.11 | 0.00 | 84 | 1012.7 |
| 20260507224822 | 13 | 200 | 1.6 | 8.0 | 0.00 | 10.11 | 0.00 | 84 | 1012.6 |
| 20260507224333 | 13 | 200 | 3.2 | 8.0 | 0.00 | 10.11 | 0.00 | 84 | 1012.6 |
| 20260507223827 | 13 | 200 | 1.6 | 8.0 | 0.00 | 10.11 | 0.00 | 84 | 1012.6 |
| 20260507223317 | 13 | 200 | 1.6 | 9.7 | 0.00 | 10.11 | 0.00 | 84 | 1012.6 |
| 20260507222831 | 13 | 200 | 4.8 | 9.7 | 0.00 | 10.11 | 0.00 | 84 | 1012.6 |
| 20260507222326 | 13 | 200 | 3.2 | 6.4 | 0.00 | 10.11 | 0.00 | 84 | 1012.5 |
| 20260507221816 | 13 | 200 | 0.0 | 3.2 | 0.00 | 10.11 | 0.00 | 84 | 1012.6 |
| 20260507221326 | 12 | 200 | 0.0 | 1.6 | 0.00 | 10.11 | 0.00 | 84 | 1012.6 |
| 20260507220820 | 13 | 200 | 0.0 | 0.0 | 0.00 | 10.11 | 0.00 | 84 | 1012.7 |
| 20260507220322 | 13 | 200 | 0.0 | 4.8 | 0.00 | 10.11 | 0.00 | 84 | 1012.8 |
| 20260507215833 | 13 | 200 | 0.0 | 4.8 | 0.00 | 10.11 | 2.03 | 84 | 1012.9 |
| 20260507215323 | 13 | 200 | 1.6 | 6.4 | 0.00 | 10.11 | 2.03 | 84 | 1012.9 |
| 20260507214834 | 13 | 200 | 1.6 | 4.8 | 0.00 | 10.11 | 2.03 | 84 | 1012.9 |
| 20260507214327 | 13 | 200 | 1.6 | 6.4 | 0.00 | 10.11 | 2.03 | 84 | 1012.9 |
| 20260507213818 | 13 | 200 | 3.2 | 6.4 | 0.00 | 10.11 | 2.03 | 84 | 1013.0 |
| 20260507213328 | 12 | 200 | 1.6 | 3.2 | 0.00 | 10.11 | 2.03 | 84 | 1013.0 |
| 20260507212822 | 13 | 200 | 1.6 | 3.2 | 0.00 | 10.11 | 2.03 | 84 | 1013.0 |
| 20260507212333 | 13 | 200 | 0.0 | 4.8 | 0.00 | 10.11 | 2.03 | 84 | 1013.1 |
| 20260507211826 | 13 | 200 | 0.0 | 4.8 | 0.10 | 10.11 | 2.03 | 84 | 1013.0 |
| 20260507211322 | 13 | 200 | 0.0 | 6.4 | 0.10 | 10.11 | 2.03 | 84 | 1013.0 |
| 20260507210833 | 13 | 200 | 1.6 | 6.4 | 0.10 | 10.11 | 2.03 | 84 | 1012.9 |
| 20260507210331 | 12 | 200 | 3.2 | 8.0 | 0.10 | 10.11 | 2.03 | 84 | 1012.9 |
| 20260507205821 | 12 | 199 | 3.2 | 6.4 | 0.20 | 10.11 | 2.03 | 84 | 1012.8 |
| 20260507205332 | 12 | 199 | 3.2 | 6.4 | 0.20 | 10.11 | 2.03 | 84 | 1012.7 |
| 20260507204828 | 12 | 199 | 1.6 | 8.0 | 0.20 | 10.11 | 2.03 | 84 | 1012.6 |
| 20260507204339 | 12 | 199 | 0.0 | 8.0 | 0.20 | 10.11 | 2.03 | 84 | 1012.5 |
| 20260507203830 | 13 | 198 | 1.6 | 9.7 | 0.30 | 10.11 | 2.03 | 84 | 1012.4 |
| 20260507203326 | 13 | 198 | 4.8 | 9.7 | 0.41 | 10.11 | 2.03 | 84 | 1012.3 |
| 20260507202820 | 13 | 188 | 3.2 | 8.0 | 0.51 | 10.11 | 2.03 | 84 | 1012.4 |
| 20260507202337 | 13 | 188 | 1.6 | 8.0 | 0.61 | 10.11 | 2.03 | 84 | 1012.3 |
| 20260507201828 | 13 | 181 | 3.2 | 6.4 | 0.71 | 10.01 | 2.01 | 84 | 1012.2 |
| 20260507201320 | 13 | 179 | 3.2 | 4.8 | 0.99 | 10.01 | 2.01 | 84 | 1012.2 |
| 20260507200831 | 13 | 179 | 0.0 | 3.2 | 1.30 | 10.01 | 2.01 | 84 | 1012.2 |
| 20260507200321 | 13 | 179 | 0.0 | 0.0 | 1.60 | 10.01 | 2.01 | 84 | 1012.3 |
| 20260507195832 | 13 | 179 | 0.0 | 0.0 | 1.70 | 9.91 | 1.98 | 84 | 1012.2 |
| 20260507195322 | 13 | 179 | 0.0 | 0.0 | 2.01 | 9.91 | 1.98 | 84 | 1012.1 |
| 20260507194833 | 13 | 179 | 0.0 | 1.6 | 2.21 | 9.91 | 1.98 | 84 | 1012.2 |
| 20260507194331 | 13 | 179 | 0.0 | 3.2 | 2.49 | 9.91 | 1.98 | 84 | 1012.1 |
| 20260507193821 | 13 | 179 | 0.0 | 4.8 | 2.69 | 9.80 | 1.96 | 84 | 1012.2 |
| 20260507193332 | 13 | 179 | 0.0 | 4.8 | 2.79 | 9.70 | 1.93 | 84 | 1012.3 |
| 20260507192824 | 13 | 179 | 0.0 | 0.0 | 3.00 | 9.60 | 1.93 | 84 | 1012.3 |
| 20260507192318 | 13 | 179 | 0.0 | 1.6 | 3.30 | 9.50 | 1.91 | 84 | 1012.2 |
| 20260507191832 | 13 | 179 | 0.0 | 3.2 | 3.20 | 9.30 | 1.85 | 84 | 1012.1 |
| 20260507191322 | 13 | 179 | 1.6 | 4.8 | 3.00 | 8.99 | 1.80 | 84 | 1012.0 |
| 20260507190832 | 13 | 179 | 1.6 | 4.8 | 2.79 | 8.71 | 1.75 | 84 | 1011.9 |
| 20260507190327 | 13 | 179 | 3.2 | 4.8 | 2.49 | 8.41 | 1.68 | 84 | 1012.0 |
| 20260507185838 | 13 | 179 | 1.6 | 4.8 | 2.39 | 8.20 | 1.65 | 85 | 1012.0 |
| 20260507185328 | 13 | 179 | 0.0 | 4.8 | 2.39 | 7.90 | 1.57 | 85 | 1012.2 |
| 20260507184838 | 13 | 179 | 0.0 | 6.4 | 2.39 | 7.59 | 1.52 | 85 | 1012.2 |
| 20260507184329 | 13 | 179 | 3.2 | 6.4 | 2.49 | 7.29 | 1.45 | 85 | 1012.1 |
| 20260507183822 | 13 | 178 | 3.2 | 11.3 | 3.10 | 7.01 | 1.40 | 85 | 1012.1 |
| 20260507183332 | 13 | 178 | 4.8 | 11.3 | 3.30 | 6.91 | 1.37 | 85 | 1012.1 |
| 20260507182826 | 13 | 180 | 4.8 | 12.9 | 3.20 | 6.60 | 1.32 | 84 | 1011.9 |
| 20260507182320 | 13 | 179 | 3.2 | 12.9 | 2.90 | 6.20 | 1.24 | 84 | 1011.9 |
| 20260507181833 | 13 | 150 | 3.2 | 11.3 | 2.90 | 6.10 | 1.22 | 84 | 1011.9 |
| 20260507181323 | 13 | 186 | 6.4 | 17.7 | 3.20 | 5.99 | 1.19 | 84 | 1011.6 |
| 20260507180837 | 13 | 132 | 6.4 | 17.7 | 3.30 | 5.89 | 1.17 | 84 | 1011.5 |
| 20260507180328 | 13 | 96 | 3.2 | 12.9 | 3.61 | 5.89 | 1.17 | 84 | 1011.5 |
| 20260507175837 | 13 | 153 | 4.8 | 14.5 | 3.61 | 5.69 | 1.14 | 84 | 1011.3 |
| 20260507175328 | 13 | 146 | 4.8 | 14.5 | 3.51 | 5.51 | 1.09 | 84 | 1011.3 |
| 20260507174822 | 14 | 169 | 4.8 | 14.5 | 3.20 | 5.11 | 1.02 | 84 | 1011.1 |
| 20260507174319 | 15 | 88 | 4.8 | 12.9 | 2.79 | 4.60 | 0.91 | 84 | 1011.1 |
| 20260507173832 | 15 | 32 | 3.2 | 8.0 | 2.11 | 3.91 | 0.79 | 86 | 1011.1 |
| 20260507173326 | 15 | 27 | 1.6 | 8.0 | 1.70 | 3.51 | 0.71 | 84 | 1010.8 |
| 20260507172820 | 15 | 26 | 1.6 | 20.9 | 1.60 | 3.40 | 0.69 | 83 | 1010.7 |
| 20260507172334 | 15 | 320 | 1.6 | 9.7 | 1.50 | 3.30 | 0.66 | 83 | 1010.7 |
| 20260507171824 | 15 | 12 | 1.6 | 14.5 | 1.40 | 3.20 | 0.64 | 83 | 1010.4 |
| 20260507171333 | 16 | 355 | 4.8 | 14.5 | 0.99 | 2.79 | 0.56 | 83 | 1010.5 |
| 20260507170827 | 16 | 46 | 1.6 | 6.4 | 0.71 | 2.49 | 0.51 | 83 | 1010.4 |
| 20260507170324 | 16 | 41 | 0.0 | 8.0 | 0.51 | 2.31 | 0.46 | 82 | 1010.4 |
| 20260507165835 | 17 | 40 | 1.6 | 11.3 | 0.30 | 2.11 | 0.43 | 83 | 1010.4 |
| 20260507165329 | 17 | 11 | 4.8 | 14.5 | 0.30 | 2.01 | 0.41 | 83 | 1010.4 |
| 20260507164822 | 17 | 346 | 1.6 | 12.9 | 0.30 | 1.91 | 0.38 | 83 | 1010.3 |
| 20260507164333 | 17 | 347 | 6.4 | 12.9 | 0.20 | 1.80 | 0.36 | 83 | 1010.3 |
| 20260507163826 | 17 | 269 | 1.6 | 4.8 | 0.20 | 1.80 | 0.36 | 83 | 1010.3 |
| 20260507163337 | 17 | 269 | 0.0 | 4.8 | 0.20 | 1.80 | 0.36 | 83 | 1010.2 |
| 20260507162826 | 17 | 269 | 1.6 | 4.8 | 0.20 | 1.80 | 0.36 | 82 | 1010.0 |
| 20260507162327 | 17 | 269 | 0.0 | 8.0 | 0.20 | 1.80 | 0.36 | 82 | 1010.0 |
| 20260507161823 | 17 | 345 | 1.6 | 11.3 | 0.20 | 1.80 | 0.36 | 82 | 1010.0 |
| 20260507161334 | 17 | 360 | 3.2 | 11.3 | 0.20 | 1.80 | 0.36 | 82 | 1010.0 |
| 20260507160827 | 18 | 334 | 1.6 | 11.3 | 0.20 | 1.80 | 0.36 | 81 | 1009.9 |
| 20260507160333 | 18 | 334 | 3.2 | 11.3 | 0.20 | 1.80 | 0.36 | 81 | 1009.8 |
| 20260507155827 | 18 | 5 | 1.6 | 11.3 | 0.10 | 1.70 | 0.33 | 80 | 1009.8 |
| 20260507155339 | 18 | 5 | 6.4 | 11.3 | 0.10 | 1.70 | 0.33 | 79 | 1009.9 |
| 20260507154830 | 18 | 9 | 3.2 | 11.3 | 0.00 | 1.60 | 0.33 | 79 | 1009.8 |
| 20260507154326 | 18 | 9 | 6.4 | 11.3 | 0.00 | 1.60 | 0.33 | 79 | 1009.8 |
| 20260507153820 | 18 | 18 | 0.0 | 8.0 | 0.00 | 1.60 | 0.33 | 79 | 1009.7 |
| 20260507153333 | 18 | 19 | 3.2 | 12.9 | 0.00 | 1.60 | 0.33 | 78 | 1009.7 |
| 20260507153101 | 18 | 19 | 4.8 | 12.9 | 0.00 | 1.60 | 0.33 | 78 | 1009.7 |
| 20260507152856 | -17 | 345 | 3.2 | 0.0 | 0.00 | 0.00 | 0.00 | ||
| 20260507152824 | 18 | 19 | 4.8 | 12.9 | 0.00 | 1.60 | 0.33 | 78 | 1009.7 |
| 20260507152338 | 18 | 345 | 3.2 | 9.7 | 0.00 | 1.60 | 0.33 | 78 | 1009.8 |
| 20260507151828 | 18 | 344 | 4.8 | 9.7 | 0.00 | 1.60 | 0.33 | 78 | 1009.8 |
| 20260507151319 | 18 | 351 | 3.2 | 8.0 | 0.00 | 1.60 | 0.33 | 78 | 1009.8 |
| 20260507150831 | 18 | 11 | 1.6 | 6.4 | 0.00 | 1.60 | 0.33 | 78 | 1009.7 |
| 20260507150329 | 18 | 22 | 0.0 | 4.8 | 0.00 | 1.60 | 0.33 | 78 | 1009.7 |
| 20260507145822 | 18 | 22 | 1.6 | 9.7 | 0.00 | 1.60 | 0.33 | 77 | 1009.8 |
| 20260507145333 | 18 | 23 | 1.6 | 11.3 | 0.00 | 1.60 | 0.33 | 77 | 1009.8 |
| 20260507144823 | 18 | 22 | 6.4 | 11.3 | 0.00 | 1.60 | 0.33 | 77 | 1010.0 |
| 20260507144334 | 18 | 10 | 1.6 | 9.7 | 0.00 | 1.60 | 0.33 | 78 | 1010.0 |
| 20260507143827 | 18 | 9 | 4.8 | 14.5 | 0.00 | 1.60 | 0.33 | 78 | 1010.0 |
| 20260507143337 | 18 | 5 | 1.6 | 14.5 | 0.00 | 1.60 | 0.33 | 78 | 1010.0 |
| 20260507142831 | 18 | 77 | 1.6 | 11.3 | 0.00 | 1.60 | 0.33 | 78 | 1010.0 |
| 20260507142325 | 18 | 67 | 0.0 | 11.3 | 0.00 | 1.60 | 0.33 | 79 | 1010.0 |
| 20260507141836 | 18 | 61 | 3.2 | 11.3 | 0.00 | 1.60 | 0.33 | 79 | 1010.1 |
| 20260507141328 | 18 | 36 | 3.2 | 14.5 | 0.00 | 1.60 | 0.33 | 78 | 1010.2 |
| 20260507140839 | 19 | 59 | 3.2 | 14.5 | 0.00 | 1.60 | 0.33 | 79 | 1010.2 |
| 20260507140332 | 19 | 49 | 4.8 | 17.7 | 0.00 | 1.60 | 0.33 | 78 | 1010.2 |
| 20260507135826 | 19 | 360 | 6.4 | 17.7 | 0.20 | 1.60 | 0.33 | 78 | 1010.2 |
| 20260507135339 | 19 | 10 | 3.2 | 17.7 | 1.09 | 1.60 | 0.33 | 81 | 1010.2 |
| 20260507134829 | 19 | 9 | 3.2 | 17.7 | 1.60 | 1.60 | 0.33 | 81 | 1010.3 |
| 20260507134326 | 19 | 38 | 4.8 | 16.1 | 1.60 | 1.60 | 0.33 | 81 | 1010.4 |
| 20260507133837 | 19 | 30 | 6.4 | 16.1 | 1.60 | 1.60 | 0.33 | 82 | 1010.4 |
| 20260507133330 | 19 | 18 | 4.8 | 11.3 | 1.60 | 1.60 | 0.33 | 83 | 1010.4 |
| 20260507132827 | 18 | 16 | 1.6 | 11.3 | 1.60 | 1.60 | 0.33 | 83 | 1010.5 |
| 20260507132340 | 18 | 31 | 4.8 | 11.3 | 1.60 | 1.60 | 0.33 | 83 | 1010.6 |
| 20260507131831 | 18 | 5 | 4.8 | 11.3 | 1.60 | 1.60 | 0.33 | 83 | 1010.8 |
| 20260507131321 | 18 | 65 | 1.6 | 4.8 | 1.60 | 1.60 | 0.33 | 82 | 1010.8 |
| 20260507130833 | 18 | 65 | 1.6 | 6.4 | 1.60 | 1.60 | 0.33 | 81 | 1010.9 |
| 20260507130328 | 18 | 66 | 1.6 | 11.3 | 1.60 | 1.60 | 0.33 | 80 | 1011.1 |
| 20260507125842 | 19 | 60 | 1.6 | 11.3 | 1.40 | 1.40 | 0.28 | 79 | 1011.1 |
| 20260507125332 | 20 | 81 | 3.2 | 12.9 | 0.41 | 0.41 | 0.08 | 78 | 1011.2 |
| 20260507124823 | 20 | 11 | 4.8 | 16.1 | 0.00 | 0.00 | 0.00 | 76 | 1011.0 |
| 20260507124333 | 20 | 23 | 6.4 | 14.5 | 0.00 | 0.00 | 0.00 | 76 | 1011.0 |
| 20260507123824 | 20 | 51 | 6.4 | 14.5 | 0.00 | 0.00 | 0.00 | 76 | 1011.1 |
| 20260507123333 | 20 | 11 | 4.8 | 14.5 | 0.00 | 0.00 | 0.00 | 74 | 1010.9 |
| 20260507122827 | 20 | 55 | 3.2 | 19.3 | 0.00 | 0.00 | 0.00 | 74 | 1011.0 |
| 20260507122325 | 20 | 13 | 8.0 | 19.3 | 0.00 | 0.00 | 0.00 | 74 | 1011.2 |
| 20260507121835 | 20 | 71 | 3.2 | 12.9 | 0.00 | 0.00 | 0.00 | 74 | 1011.1 |
| 20260507121329 | 20 | 12 | 1.6 | 11.3 | 0.00 | 0.00 | 0.00 | 74 | 1011.2 |
| 20260507120842 | 20 | 5 | 4.8 | 17.7 | 0.00 | 0.00 | 0.00 | 73 | 1011.2 |
| 20260507120334 | 20 | 13 | 4.8 | 17.7 | 0.00 | 0.00 | 0.00 | 73 | 1011.2 |
| 20260507115841 | 20 | 9 | 4.8 | 14.5 | 0.00 | 0.00 | 0.00 | 73 | 1011.3 |
| 20260507115335 | 21 | 5 | 6.4 | 14.5 | 0.00 | 0.00 | 0.00 | 72 | 1011.4 |
| 20260507114828 | 21 | 355 | 3.2 | 14.5 | 0.00 | 0.00 | 0.00 | 73 | 1011.5 |
| 20260507114339 | 20 | 12 | 3.2 | 12.9 | 0.00 | 0.00 | 0.00 | 74 | 1011.5 |
| 20260507113834 | 20 | 13 | 6.4 | 16.1 | 0.00 | 0.00 | 0.00 | 74 | 1011.4 |
| 20260507113344 | 20 | 13 | 6.4 | 16.1 | 0.00 | 0.00 | 0.00 | 74 | 1011.6 |
| 20260507112835 | 20 | 18 | 4.8 | 11.3 | 0.00 | 0.00 | 0.00 | 74 | 1011.6 |
| 20260507112331 | 20 | 18 | 1.6 | 11.3 | 0.00 | 0.00 | 0.00 | 74 | 1011.6 |
| 20260507111842 | 20 | 15 | 6.4 | 11.3 | 0.00 | 0.00 | 0.00 | 73 | 1011.6 |
| 20260507111332 | 20 | 13 | 3.2 | 9.7 | 0.00 | 0.00 | 0.00 | 74 | 1011.7 |
| 20260507110843 | 20 | 13 | 1.6 | 8.0 | 0.00 | 0.00 | 0.00 | 75 | 1011.8 |
| 20260507110332 | 20 | 15 | 4.8 | 8.0 | 0.00 | 0.00 | 0.00 | 75 | 1011.8 |
| 20260507105827 | 20 | 15 | 0.0 | 8.0 | 0.00 | 0.00 | 0.00 | 75 | 1011.7 |
| 20260507105320 | 20 | 15 | 1.6 | 6.4 | 0.00 | 0.00 | 0.00 | 75 | 1011.8 |
| 20260507104834 | 20 | 15 | 1.6 | 6.4 | 0.00 | 0.00 | 0.00 | 76 | 1011.9 |
| 20260507104328 | 20 | 15 | 0.0 | 8.0 | 0.00 | 0.00 | 0.00 | 76 | 1011.8 |
| 20260507103838 | 19 | 15 | 0.0 | 6.4 | 0.00 | 0.00 | 0.00 | 77 | 1011.8 |
| 20260507103328 | 19 | 15 | 0.0 | 9.7 | 0.00 | 0.00 | 0.00 | 77 | 1012.0 |
| 20260507102838 | 19 | 15 | 0.0 | 9.7 | 0.00 | 0.00 | 0.00 | 77 | 1012.0 |
| 20260507102329 | 19 | 15 | 1.6 | 8.0 | 0.00 | 0.00 | 0.00 | 77 | 1012.0 |
| 20260507101846 | 19 | 15 | 4.8 | 9.7 | 0.00 | 0.00 | 0.00 | 77 | 1011.9 |
| 20260507101337 | 19 | 16 | 4.8 | 9.7 | 0.00 | 0.00 | 0.00 | 77 | 1012.0 |
| 20260507100830 | 19 | 17 | 1.6 | 9.7 | 0.00 | 0.00 | 0.00 | 77 | 1011.9 |
| 20260507100335 | 19 | 18 | 1.6 | 9.7 | 0.00 | 0.00 | 0.00 | 77 | 1012.0 |
| 20260507095832 | 19 | 18 | 3.2 | 9.7 | 0.00 | 0.00 | 0.00 | 77 | 1012.1 |
| 20260507095342 | 18 | 18 | 1.6 | 6.4 | 0.00 | 0.00 | 0.00 | 77 | 1012.1 |
| 20260507094833 | 18 | 18 | 1.6 | 6.4 | 0.00 | 0.00 | 0.00 | 77 | 1012.2 |
| 20260507094343 | 18 | 18 | 0.0 | 8.0 | 0.00 | 0.00 | 0.00 | 78 | 1012.1 |
| 20260507093838 | 18 | 18 | 1.6 | 9.7 | 0.00 | 0.00 | 0.00 | 77 | 1012.2 |
| 20260507093328 | 18 | 21 | 1.6 | 8.0 | 0.00 | 0.00 | 0.00 | 76 | 1012.2 |
| 20260507092838 | 18 | 21 | 1.6 | 11.3 | 0.00 | 0.00 | 0.00 | 76 | 1012.2 |
| 20260507092329 | 18 | 21 | 3.2 | 11.3 | 0.00 | 0.00 | 0.00 | 75 | 1012.2 |
| 20260507091842 | 19 | 22 | 3.2 | 11.3 | 0.00 | 0.00 | 0.00 | 75 | 1012.2 |
| 20260507091333 | 19 | 30 | 0.0 | 6.4 | 0.00 | 0.00 | 0.00 | 75 | 1012.1 |
| 20260507090823 | 19 | 30 | 1.6 | 6.4 | 0.00 | 0.00 | 0.00 | 75 | 1012.1 |
| 20260507090333 | 19 | 30 | 1.6 | 6.4 | 0.00 | 0.00 | 0.00 | 76 | 1012.1 |
| 20260507085827 | 19 | 30 | 1.6 | 4.8 | 0.00 | 0.00 | 0.00 | 76 | 1012.1 |
| 20260507085324 | 19 | 30 | 0.0 | 6.4 | 0.00 | 0.00 | 0.00 | 76 | 1012.3 |
| 20260507084834 | 19 | 30 | 0.0 | 9.7 | 0.00 | 0.00 | 0.00 | 75 | 1012.2 |
| 20260507084325 | 19 | 30 | 4.8 | 8.0 | 0.00 | 0.00 | 0.00 | 75 | 1012.2 |
| 20260507083835 | 19 | 30 | 3.2 | 8.0 | 0.00 | 0.00 | 0.00 | 76 | 1012.2 |
| 20260507083329 | 18 | 34 | 0.0 | 11.3 | 0.00 | 0.00 | 0.00 | 75 | 1012.1 |
| 20260507082825 | 18 | 34 | 3.2 | 11.3 | 0.00 | 0.00 | 0.00 | 76 | 1012.1 |
| 20260507082336 | 18 | 37 | 3.2 | 6.4 | 0.00 | 0.00 | 0.00 | 76 | 1012.0 |
| 20260507081831 | 18 | 37 | 0.0 | 8.0 | 0.00 | 0.00 | 0.00 | 76 | 1011.9 |
| 20260507081321 | 18 | 39 | 1.6 | 6.4 | 0.00 | 0.00 | 0.00 | 77 | 1011.9 |